Flag for Italy Weather past 2 weeks in Trieste, Italy

Now
49 °F

Overcast.


Feels Like: 42 °F
Forecast: 43 / 50 °F
Wind: 20 mph from Northeast

Location: Trieste

Current Time: Mar 4, 2015 at 8:42:09 PM

Latest Report: Mar 4, 2015 at 8:00 PM


Visibility: 6 mi

Pressure: 30.08 "Hg

Humidity: 55%

Dew point: 33 °F

Location of TriesteLocation

Historic Weather in Trieste — Graph

°F

Trieste temperature yesterday

Maximum temperature yesterday: 59 °F (at 12:00 PM)
Minimum temperature yesterday: 41 °F (at 5:00 AM)
Average temperature yesterday: 50 °F

Past Weeks' High & Low Weather Summary

 TemperatureHumidityPressure
High59 °F (Mar 3, 12:00 PM)99% (Feb 24, 3:00 AM)30.60 "Hg (Feb 24, 3:00 AM)
Low35 °F (Feb 19, 7:00 AM)27% (Mar 3, 12:00 PM)29.53 "Hg (Feb 22, 2:00 PM)
Average48 °F63%29.99 "Hg
* Reported Feb 17 7:00 PM — Mar 4 7:00 PM, Trieste, Weather by CustomWeather, © 2015

Note: Actual official high and low records may vary slightly from our data, if they occured in-between our weather recording intervals... More about our weather records

Advertising

Trieste weather history for previous 24 hours

 ConditionsComfort  
Time TempWeatherWind HumidityBarometerVisibility
7:00 PM
Wed, Mar 4
50 °FOvercast.17 mph48%30.08 "Hg12 mi
6:00 PM52 °FOvercast.12 mph49%30.07 "Hg12 mi
5:00 PM54 °FOvercast.9 mph46%30.05 "Hg12 mi
4:00 PM56 °FOvercast.7 mph48%30.05 "Hg12 mi
3:00 PM56 °FOvercast.5 mph54%30.07 "Hg12 mi
2:00 PM55 °FOvercast.1 mph57%30.09 "Hg12 mi
1:00 PM55 °FOvercast.2 mph63%30.11 "Hg12 mi
12:00 PM54 °FOvercast.No wind58%30.14 "Hg12 mi
11:00 AM58 °FOvercast.1 mph54%30.13 "Hg12 mi
10:00 AM54 °FOvercast.2 mph52%30.14 "Hg12 mi
9:00 AM51 °FOvercast.No wind55%30.14 "Hg12 mi
8:00 AM47 °FOvercast.1 mph58%30.15 "Hg12 mi
7:00 AM46 °FPartly sunny.No wind65%30.15 "Hg12 mi
6:00 AM46 °FPassing clouds.No wind65%30.16 "Hg12 mi
5:00 AM45 °FClear.No wind65%30.16 "Hg12 mi
3:00 AM44 °FClear.1 mph67%30.17 "Hg12 mi
2:00 AM43 °FClear.No wind65%30.20 "Hg12 mi
1:00 AM42 °FClear.1 mph62%30.22 "Hg12 mi
12:00 AM44 °FClear.1 mph61%30.22 "Hg12 mi
11:00 PM
Tue, Mar 3
44 °FClear.2 mph57%30.22 "Hg12 mi
10:00 PM45 °FClear.2 mph54%30.21 "Hg12 mi
9:00 PM46 °FClear.1 mph50%30.20 "Hg12 mi
8:00 PM47 °FClear.5 mph46%30.20 "Hg12 mi
Weather by CustomWeather, © 2015

See weather overviewHow to use our weather pages